Theta_e
300 299 298 299 299 299 298 298 297 296 295 294 294 293 293 293 292 292 292 292 292 292 291 291 290 288 288 289 289 289 289 289 288 288 288 288 289 289 288 288 288 287 287 286 285 287 285 284 284 284 284 284 284 283 282 282 282 283 283 283 283 281 281 282 282 282 281 280 281 281 282 282 284 285 283 284 284 285 284 283 283 283 283 283 284
298 295 297 297 298 298 297 296 296 295 294 294 294 293 293 292 292 292 292 292 292 292 292 291 291 290 290 289 289 289 289 289 288 288 288 289 289 288 288 287 288 287 287 286 286 285 284 283 284 283 284 284 284 283 282 286 285 282 283 281 282 282 280 282 283 282 279 278 278 279 280 281 282 283 282 282 282 283 283 283 283 283 283 284 285
295 296 296 297 297 297 296 296 296 296 294 294 294 293 292 292 292 292 292 292 292 292 292 291 291 290 290 289 289 288 288 289 288 288 289 288 288 288 288 287 287 287 287 286 285 285 284 283 284 283 283 284 282 282 282 281 281 282 281 281 280 280 282 283 282 282 278 279 279 278 276 277 281 280 280 282 283 283 282 282 283 283 284 284 284
296 296 295 295 296 296 295 295 295 295 294 293 293 293 293 293 292 292 292 292 292 292 292 291 291 289 288 289 288 288 288 289 288 287 287 287 287 288 287 287 287 286 286 286 286 285 284 284 283 282 283 283 282 281 281 280 281 281 281 282 281 278 278 278 283 281 280 279 275 277 275 276 275 275 278 281 282 281 281 281 282 283 283 283 283
296 295 294 294 294 295 295 295 294 294 293 293 293 293 294 293 292 292 292 292 292 292 292 290 290 288 288 288 288 287 287 286 286 285 286 287 287 286 287 287 287 286 286 286 286 284 284 283 283 283 282 282 282 281 280 281 281 281 281 281 280 279 278 278 280 281 280 281 278 276 275 274 274 275 278 279 279 280 282 282 282 282 282 282 283
297 296 295 295 295 295 294 293 293 294 293 294 294 294 294 293 293 292 292 292 291 291 291 290 290 289 288 287 286 286 285 285 285 286 286 286 287 287 286 287 287 286 286 285 285 285 284 283 283 282 282 282 282 281 281 280 280 280 281 280 280 280 279 279 277 280 282 282 281 279 279 276 274 276 276 274 278 281 281 281 281 280 281 282 282
295 295 295 294 294 294 293 293 293 293 294 294 294 294 294 293 293 292 292 292 292 291 291 291 289 289 289 288 288 287 286 287 287 288 287 287 287 286 286 286 286 286 285 285 285 285 284 283 283 282 282 282 283 281 280 280 281 280 281 280 280 283 280 278 277 278 278 279 281 280 280 281 279 277 274 277 274 276 277 278 279 281 281 282 282
296 295 295 295 295 294 293 294 293 294 294 293 293 293 293 293 292 292 292 292 292 291 291 291 290 289 288 288 288 287 287 287 287 287 287 287 286 286 286 286 285 286 285 284 284 284 284 283 283 282 282 281 282 281 280 280 281 281 281 280 280 281 279 278 277 278 277 277 281 279 278 279 278 278 278 276 275 274 275 278 279 280 281 281 281
297 296 295 295 294 294 295 293 294 293 293 293 293 293 293 293 292 292 292 291 291 291 291 290 291 290 289 288 287 288 287 287 287 287 286 286 285 285 285 285 285 285 285 284 284 284 284 283 282 282 281 281 283 281 280 281 280 279 279 279 279 279 279 279 278 277 277 277 277 276 277 276 276 277 277 276 275 274 274 275 276 278 279 280 281
297 297 296 295 295 295 295 294 293 293 293 293 292 292 292 292 292 291 291 291 291 290 291 290 290 290 289 288 287 287 286 285 286 285 285 285 285 284 285 284 284 284 284 284 283 283 283 282 282 281 281 281 282 280 280 280 280 279 279 279 279 279 279 279 279 278 278 277 277 277 277 276 275 276 275 275 275 275 274 274 276 275 275 277 279
297 296 296 295 295 294 293 293 293 292 292 292 292 292 292 292 291 291 291 292 291 290 290 290 290 290 289 288 288 287 286 285 285 285 285 284 284 284 284 284 284 284 283 283 283 283 282 282 281 281 281 282 282 280 280 279 279 279 279 279 279 278 278 278 280 280 279 278 277 277 276 277 275 275 275 275 275 274 274 274 275 276 275 275 277
297 296 294 293 292 292 292 292 292 292 291 292 291 291 291 291 291 291 291 291 291 290 290 290 290 289 289 289 288 287 286 286 285 285 285 284 284 284 284 283 283 283 282 282 282 282 282 281 281 281 281 280 280 280 280 280 279 279 278 279 278 278 278 278 277 277 277 277 276 277 276 277 277 276 276 276 275 275 275 274 274 276 275 276 278
296 296 295 294 293 292 292 292 291 291 292 292 292 291 291 291 291 290 290 291 291 290 290 290 289 289 289 289 288 288 287 287 286 285 285 285 284 284 283 283 282 282 282 281 281 281 281 280 280 280 280 280 280 279 279 279 279 278 278 277 277 277 277 277 276 276 276 276 276 277 276 277 276 277 277 276 276 276 275 273 275 275 273 274 276
297 297 295 294 294 293 293 293 292 292 292 292 292 291 291 291 290 290 291 291 290 290 290 289 289 289 289 289 288 288 287 287 286 286 285 285 285 284 283 283 282 282 282 282 282 281 281 281 280 280 280 279 279 279 278 278 278 277 278 277 277 277 277 276 276 276 276 276 276 276 276 276 276 277 276 276 275 275 274 274 273 274 274 273 275
296 296 296 295 295 294 293 293 293 292 292 292 292 291 291 290 290 290 290 290 290 290 290 289 289 289 289 289 289 288 287 287 287 287 286 285 285 284 284 283 283 282 282 282 281 281 281 280 280 279 279 279 279 279 279 278 278 278 278 277 277 276 276 277 276 276 276 276 275 275 276 276 276 276 276 276 276 276 275 274 274 271 272 273 273
295 295 295 295 294 293 293 292 292 292 291 291 291 291 291 291 291 290 290 290 290 290 290 290 289 289 289 288 288 288 288 287 287 286 286 285 285 284 283 283 282 281 281 281 281 281 280 279 280 279 279 278 278 278 278 278 277 277 277 277 276 278 276 276 276 276 275 275 275 275 275 275 276 276 276 276 276 276 276 275 274 273 271 269 272
294 295 295 295 292 292 293 292 292 291 291 291 292 292 292 291 291 290 290 290 290 290 290 290 290 289 288 288 288 287 287 287 286 286 285 285 284 284 283 282 281 280 280 281 280 280 280 279 279 278 278 278 278 277 277 277 276 277 276 276 275 275 276 275 275 275 275 275 275 275 275 275 275 275 276 276 276 275 276 275 275 274 273 271 269
295 295 294 294 294 293 293 292 292 292 292 292 292 292 292 292 291 290 290 289 290 290 290 290 289 289 288 288 288 288 287 287 286 285 285 284 283 282 281 280 280 280 281 281 280 279 279 279 278 278 277 277 277 277 277 276 276 276 276 275 275 275 275 275 275 275 275 275 275 275 275 275 275 274 275 275 275 275 275 275 275 275 274 272 271
293 294 294 294 293 293 293 293 293 293 292 292 292 291 291 291 291 291 290 290 290 290 290 290 289 289 289 288 288 287 287 287 286 285 284 283 282 281 281 281 280 280 280 279 279 278 278 278 277 277 277 277 276 276 276 276 276 275 275 275 275 275 274 274 274 275 274 274 274 273 274 273 274 273 274 274 274 274 274 274 274 274 274 274 272
294 294 295 295 295 294 293 293 292 292 292 291 291 290 290 291 290 290 290 289 289 289 289 289 289 289 289 288 287 287 287 286 285 284 283 283 282 281 280 279 279 279 279 279 278 278 278 277 277 276 276 276 276 276 276 275 275 275 275 275 274 274 273 273 273 274 274 274 273 273 273 273 273 273 273 273 273 273 274 273 273 273 273 273 273
294 295 295 295 294 293 292 292 291 289 289 289 289 290 290 290 289 290 289 289 289 289 289 289 289 288 288 287 286 286 285 285 284 283 283 282 281 281 280 279 279 279 278 278 278 277 277 277 276 276 276 276 275 275 275 275 274 274 274 274 273 273 273 273 273 272 273 273 272 272 272 272 273 272 272 272 272 272 273 273 273 273 272 272 272
294 295 294 294 294 294 292 288 287 288 288 288 290 289 288 289 290 289 289 288 288 288 288 288 288 288 287 287 286 285 285 284 283 282 282 281 280 280 279 278 278 278 278 278 277 277 277 276 276 276 275 275 275 275 274 274 274 273 273 273 273 273 272 272 272 272 272 272 272 271 272 272 272 272 272 272 272 272 272 271 272 272 271 272 273
295 295 295 293 293 294 293 292 291 291 291 290 289 288 289 289 289 289 288 288 289 289 289 288 288 287 286 286 285 284 283 282 282 281 281 280 280 279 279 278 278 277 277 277 277 277 276 276 275 275 275 274 274 274 274 273 273 273 272 272 273 272 272 272 271 271 271 271 271 271 271 271 272 271 271 271 272 271 272 271 271 272 271 272 272
292 293 293 294 291 289 288 289 290 290 290 290 289 289 289 289 288 288 288 288 288 288 288 287 287 286 285 284 284 283 282 282 281 281 281 280 279 279 278 278 278 277 277 277 276 276 276 275 275 274 274 273 273 273 273 273 273 273 272 272 272 272 272 272 271 271 271 271 271 271 271 271 271 270 271 271 271 271 271 271 271 271 271 271 272
290 291 292 292 288 289 291 291 291 291 291 290 290 289 289 288 288 288 288 289 288 288 287 287 286 285 284 284 283 282 282 281 281 281 280 279 279 278 278 277 277 276 276 276 275 275 275 274 274 273 273 273 272 273 272 272 272 272 272 272 272 272 272 272 272 272 272 272 271 271 271 271 271 270 270 270 271 271 271 271 271 271 272 272 273
292 292 290 290 292 292 291 290 291 290 290 290 289 289 289 289 288 288 288 288 287 287 286 286 285 284 283 283 283 282 282 281 281 280 279 279 278 278 277 277 277 276 275 275 275 274 274 274 273 273 273 272 272 272 272 272 271 271 271 272 272 272 272 272 272 272 271 271 271 271 271 271 270 270 270 271 271 271 271 271 272 272 273 273 273
293 293 293 290 289 289 291 291 291 291 290 290 289 289 288 288 288 287 287 287 287 286 285 285 284 284 283 283 283 282 282 281 281 280 279 278 277 277 277 276 276 275 275 274 274 273 273 273 273 273 273 272 272 272 271 271 271 271 271 271 271 271 271 271 271 271 271 271 271 271 271 271 271 271 271 271 272 272 273 273 273 273 273 273 273
289 288 290 290 291 290 290 290 290 290 289 288 288 288 288 288 288 287 286 286 286 285 285 285 284 284 283 283 283 282 282 281 280 278 278 277 277 276 276 276 275 274 274 274 273 273 272 272 272 272 272 272 272 271 271 271 271 271 271 271 271 271 271 271 271 271 271 271 271 271 271 272 272 273 273 273 273 273 274 273 274 274 274 273 273
287 289 290 290 290 291 291 290 289 289 288 287 287 287 286 286 287 286 286 286 286 285 284 284 284 284 283 283 282 281 280 280 278 277 277 276 276 276 275 274 274 274 274 273 273 272 272 272 271 271 271 271 271 271 271 271 271 271 271 271 271 271 271 271 271 271 271 272 272 273 274 274 275 276 277 278 278 278 276 275 276 276 274 274 273
288 290 290 291 291 292 291 290 289 289 288 288 287 286 286 286 286 286 285 286 285 285 284 284 283 283 283 282 281 280 279 278 277 276 276 275 275 274 274 273 273 273 272 272 272 272 272 272 271 271 271 271 271 271 273 275 274 271 271 271 271 271 271 271 271 272 273 274 274 274 275 277 278 278 278 279 279 280 280 278 276 276 276 275 275
289 291 291 291 291 290 290 290 290 290 289 289 288 287 286 286 286 285 285 285 285 284 284 284 283 283 282 281 280 278 278 277 276 276 275 275 274 273 273 273 272 272 272 272 272 272 271 271 271 271 270 271 271 271 275 276 277 277 273 271 271 271 272 273 273 273 273 274 275 275 276 276 277 277 276 278 278 279 279 279 280 280 279 276 275
291 291 291 291 290 290 290 291 291 291 290 289 288 287 285 285 285 284 285 284 284 284 284 283 283 282 281 279 279 277 276 276 275 275 274 274 273 273 272 272 271 271 271 271 270 270 270 270 270 270 270 271 271 273 276 277 278 278 278 275 274 274 274 274 274 274 274 274 275 275 275 275 274 274 274 274 276 278 278 278 279 279 279 280 280
292 291 291 291 290 291 291 291 291 291 291 290 289 287 285 285 284 284 284 283 283 283 283 282 281 280 279 279 277 276 276 275 275 274 274 273 272 272 272 271 270 270 270 269 270 270 270 270 270 270 270 271 271 275 277 277 278 278 278 278 276 275 275 275 275 275 275 274 274 273 273 273 274 276 275 274 274 274 277 278 278 279 279 279 280
292 291 291 291 291 291 292 291 292 291 291 291 290 289 288 286 285 283 283 283 283 282 282 281 280 279 278 278 277 276 276 275 274 274 273 272 272 271 271 270 270 269 269 269 269 269 270 270 270 270 271 271 271 274 277 277 277 278 278 278 276 275 275 275 275 275 274 273 273 272 272 272 273 274 274 274 274 274 275 275 275 276 276 277 279
291 291 290 291 292 292 291 290 289 289 289 289 288 287 286 282 282 282 282 282 282 281 281 280 279 279 278 277 277 276 275 274 273 273 272 271 271 271 270 269 269 269 269 269 269 269 270 270 270 271 271 270 270 274 276 276 276 277 277 278 276 276 275 274 274 273 273 273 273 273 273 272 273 273 274 275 275 275 275 275 275 275 275 275 275
294 294 293 292 291 291 291 291 291 289 288 288 289 287 284 283 282 282 281 281 281 281 280 280 279 278 277 277 276 275 274 273 273 272 271 271 271 270 269 269 269 269 270 270 270 270 270 270 271 270 270 269 270 275 275 276 276 277 278 276 275 274 273 273 272 273 273 273 273 273 273 273 273 274 276 278 277 276 275 275 274 274 274 275 275
295 293 293 294 293 292 292 291 291 290 289 289 288 284 283 281 280 281 280 280 281 280 280 279 279 278 277 276 276 274 273 272 272 271 271 270 270 269 269 269 268 269 269 269 269 270 270 269 269 269 269 269 268 272 274 275 276 277 277 275 274 273 272 272 271 272 272 273 273 273 273 273 274 274 276 277 278 278 275 274 274 273 274 274 274
292 293 291 290 290 290 290 290 290 289 289 288 284 283 282 281 280 279 279 279 279 280 279 279 278 277 276 275 275 274 273 272 271 271 271 271 270 270 269 269 268 268 268 269 269 269 269 269 269 268 268 268 268 270 273 274 275 276 276 273 273 272 271 271 271 272 273 273 273 275 276 274 274 273 276 277 278 277 274 274 274 274 273 272 273
291 290 290 291 291 290 289 288 288 288 286 282 282 282 281 280 280 278 279 278 278 279 279 278 278 277 276 275 275 274 273 272 271 271 271 270 269 269 269 269 269 269 268 269 268 268 268 268 268 268 270 268 267 269 273 274 275 276 275 273 272 271 270 270 271 271 272 273 274 275 275 275 274 275 277 277 278 277 275 275 274 273 271 270 271
290 290 289 289 289 288 287 286 286 286 281 281 281 282 281 280 279 278 277 278 278 279 280 279 278 276 275 275 275 274 273 272 272 271 271 270 270 269 268 269 269 269 268 268 268 267 267 267 267 267 268 268 267 268 270 274 275 276 276 273 272 271 270 270 271 271 272 273 273 273 274 275 276 276 276 277 278 279 275 274 274 272 270 268 270
289 290 289 289 289 287 287 286 284 280 279 280 280 281 281 280 278 278 278 279 280 279 278 277 277 275 274 274 274 274 273 272 272 271 270 269 269 268 268 268 268 268 267 267 266 266 266 266 267 267 267 268 268 267 268 273 274 275 276 275 272 272 271 271 271 272 272 272 271 272 272 274 275 275 276 278 278 278 277 274 272 270 270 272 275
288 289 289 290 289 288 288 285 280 278 278 278 279 280 279 277 277 277 279 280 278 277 277 276 276 275 274 274 273 273 272 271 270 270 269 269 269 268 268 267 267 266 266 265 265 265 265 265 266 266 267 266 269 270 267 272 275 275 275 275 272 272 273 272 272 272 272 271 271 271 271 272 274 276 277 277 277 277 277 273 271 274 276 276 273
287 288 289 289 289 289 289 285 280 278 279 280 280 280 279 277 277 279 279 277 277 276 276 276 275 274 273 273 272 272 271 271 270 269 269 268 267 266 266 266 265 265 265 265 265 265 264 265 265 266 267 267 267 269 272 270 273 274 275 275 275 274 276 274 272 271 271 270 271 270 271 273 275 276 276 276 276 276 274 271 275 276 276 276 273
287 287 288 288 288 289 289 287 279 279 279 281 282 282 280 278 279 278 277 276 276 275 275 274 274 273 272 272 271 271 271 270 270 269 268 267 266 265 265 265 265 265 264 264 264 264 265 265 265 265 266 267 267 267 271 272 271 274 274 275 275 275 275 274 273 271 271 270 269 270 271 275 275 274 274 274 274 273 271 273 274 274 274 272 268
285 286 287 287 288 288 288 288 284 279 279 280 282 283 282 280 280 277 277 276 275 274 274 273 272 272 271 271 270 270 269 269 268 268 267 266 265 265 264 265 264 264 264 263 264 265 265 265 265 265 266 267 267 267 266 270 272 272 274 274 274 275 274 274 272 271 271 270 271 274 274 273 273 273 273 272 270 270 272 273 273 273 271 266 265
287 287 288 288 288 287 286 285 286 281 279 279 280 282 282 283 278 277 277 276 274 273 273 272 271 271 270 269 269 268 268 268 267 268 267 266 265 264 264 264 264 264 264 264 264 265 265 265 265 266 266 266 266 266 266 267 270 272 272 273 274 274 273 273 273 271 272 273 273 272 271 271 270 269 268 267 266 267 270 271 271 270 265 264 264
286 287 288 288 287 287 286 286 285 284 279 279 280 281 283 279 276 277 276 275 273 273 272 270 270 269 268 268 268 267 266 266 266 267 266 266 265 265 265 264 264 264 264 265 265 265 265 265 265 265 266 266 265 265 266 266 267 268 269 270 271 271 272 272 270 269 270 268 267 267 267 269 268 269 269 268 268 267 265 264 264 264 264 264 264
286 287 287 287 287 287 287 287 287 287 284 281 280 280 281 278 276 276 274 273 272 272 271 269 269 268 267 266 266 265 265 265 266 266 265 265 264 265 264 264 264 265 265 265 265 265 265 265 265 265 265 264 264 265 265 265 267 268 268 270 271 270 270 268 268 269 268 265 262 265 264 261 262 261 262 261 261 262 263 263 263 263 263 264 266
285 286 286 286 286 286 286 286 286 287 285 282 281 281 280 278 276 274 273 272 272 270 270 268 267 266 265 266 266 265 265 265 265 265 265 265 265 265 265 265 267 268 267 267 266 266 266 267 266 265 264 264 264 264 265 269 268 271 270 270 270 270 270 269 270 272 265 259 257 257 257 259 257 259 259 259 260 260 261 261 262 262 263 263 263
284 285 285 285 285 285 285 285 286 287 285 282 281 281 279 278 275 273 272 272 271 269 268 267 266 266 265 265 265 265 265 265 265 264 264 264 267 269 267 266 267 270 271 271 271 267 267 267 266 266 266 264 264 265 271 273 273 274 274 273 272 272 272 270 271 270 264 254 254 254 256 256 257 257 258 258 259 259 260 260 261 264 263 262 263
282 282 283 283 284 284 285 285 285 285 285 284 282 281 278 276 274 273 273 273 271 269 268 266 265 265 265 265 265 265 264 264 264 264 264 264 265 268 271 270 270 271 272 272 272 272 272 271 267 265 268 270 270 272 273 274 274 273 273 272 272 271 271 271 270 264 256 253 254 254 255 256 256 257 257 258 259 259 260 260 260 261 262 263 263
Wind_Speed
13 8 10 13 14 13 12 11 11 12 12 14 15 15 15 16 14 15 13 13 12 12 12 12 12 8 6 11 11 10 10 8 8 8 8 8 9 9 9 8 8 8 8 7 7 7 6 5 5 4 4 4 4 4 3 3 2 1 1 1 1 3 2 3 6 6 7 6 4 7 7 6 9 8 4 3 2 3 4 7 6 5 4 4 4
2 5 7 8 9 10 10 10 11 14 12 13 16 16 14 15 17 15 12 14 14 15 13 12 13 14 14 13 10 10 10 10 10 9 9 7 9 9 9 8 9 8 8 7 7 7 7 6 5 5 5 5 4 4 4 3 1 1 0 1 1 1 1 2 5 5 5 7 10 11 2 3 6 1 1 1 6 9 8 6 5 3 5 5 5
6 8 8 11 11 11 11 11 13 17 16 17 15 15 15 15 15 14 14 14 13 13 12 13 10 8 9 7 10 7 4 4 5 6 7 8 9 9 8 9 9 8 8 8 8 7 7 6 6 6 5 5 5 4 4 3 3 2 2 1 1 1 1 1 1 4 2 5 6 2 8 11 1 4 2 6 11 8 4 3 3 3 5 4 5
11 10 10 10 11 11 10 11 13 11 12 11 14 17 15 15 14 15 14 14 13 13 12 9 8 5 4 5 4 4 5 6 5 5 6 7 8 8 8 9 9 9 9 8 7 7 8 7 6 6 6 5 6 5 4 3 3 2 1 1 1 1 2 2 1 3 2 4 6 2 3 1 9 5 14 13 6 3 1 4 4 6 5 5 5
12 8 6 8 10 14 16 14 11 14 14 16 16 16 13 17 16 16 14 15 13 12 12 9 8 6 6 6 5 5 5 5 5 6 7 7 7 9 11 9 9 9 8 8 8 9 7 7 7 6 6 5 6 6 5 5 4 3 3 3 2 1 2 1 1 2 3 0 1 3 4 3 2 5 9 12 6 8 9 9 7 5 5 5 5
13 13 13 14 16 12 9 10 13 13 15 16 16 17 15 14 14 14 12 12 13 13 13 11 12 12 11 10 11 8 8 10 13 15 12 13 14 8 7 8 9 8 8 8 8 8 8 7 6 6 6 6 6 6 5 4 4 3 4 3 2 3 2 1 2 1 1 2 2 3 4 4 5 5 5 7 3 11 11 9 6 4 4 6 6
7 6 9 11 11 11 12 13 15 16 16 13 13 15 15 15 15 16 14 12 12 13 14 12 12 12 15 15 14 15 14 11 9 9 11 9 7 10 10 8 9 9 8 8 8 8 8 7 7 6 6 6 4 5 5 5 5 4 3 2 3 3 3 1 3 4 4 2 2 2 3 3 3 3 4 7 14 1 1 4 5 6 7 8 9
10 11 12 14 15 17 18 18 15 18 14 13 13 13 16 15 15 15 12 12 12 12 15 15 14 14 13 13 12 13 14 13 12 11 9 7 9 9 8 8 8 8 9 8 9 8 8 8 7 7 7 6 6 6 6 5 4 2 2 2 2 4 4 3 3 1 2 4 1 3 3 2 2 3 4 5 7 15 9 2 4 8 7 8 8
10 11 13 14 15 15 14 14 15 10 11 14 14 14 12 12 13 13 14 13 13 15 16 16 14 14 14 12 12 10 10 8 7 7 8 8 10 8 8 8 8 8 8 9 8 8 8 8 8 7 7 7 6 6 5 5 5 4 2 2 2 2 3 2 2 3 3 5 2 2 1 3 3 3 4 2 5 8 17 7 9 3 6 9 12
9 14 14 14 14 14 14 10 9 13 11 10 10 11 12 11 13 15 15 14 13 15 16 16 15 13 14 14 15 11 8 7 8 9 9 9 11 10 9 9 9 8 8 8 8 8 8 8 8 8 8 7 6 6 5 5 4 4 3 3 2 2 2 3 4 4 4 3 3 3 2 2 3 3 2 2 3 6 13 16 9 16 17 4 6
9 10 8 10 9 9 7 12 13 8 8 10 11 12 12 13 14 16 17 13 14 16 16 17 15 14 15 15 16 14 12 11 10 10 9 9 11 11 10 9 8 9 8 8 8 8 8 8 8 7 7 7 7 6 6 6 5 4 3 3 3 3 3 3 3 3 3 3 3 4 6 5 6 4 5 4 3 7 10 15 14 12 13 19 5
8 7 7 7 6 6 7 9 11 12 9 11 11 11 12 13 13 16 14 16 15 15 16 16 15 16 14 14 16 15 14 13 15 15 14 15 13 12 10 8 9 8 8 8 8 9 8 8 7 7 7 7 7 6 6 5 5 4 3 3 3 3 3 3 3 3 4 4 4 4 5 5 5 6 4 4 4 8 8 15 15 15 16 9 9
8 9 8 9 12 13 13 12 9 12 16 15 14 13 12 13 15 17 18 16 16 16 17 17 16 16 16 16 15 13 15 15 15 14 13 14 12 12 12 11 9 9 10 10 10 11 9 9 9 9 8 7 7 6 5 5 5 4 4 4 4 3 4 3 3 4 4 5 5 4 5 5 6 4 3 4 4 5 7 13 14 8 15 20 11
10 10 11 12 13 14 14 14 15 14 14 15 15 14 14 13 15 17 19 16 14 15 17 17 19 18 16 15 14 13 14 14 13 13 13 12 12 14 14 14 14 14 13 13 12 11 9 9 9 8 7 7 7 6 6 5 5 6 4 4 3 3 3 3 3 4 4 4 3 5 4 5 5 3 3 3 5 6 9 9 14 12 10 16 16
7 10 12 14 14 14 14 14 14 13 13 14 13 14 13 13 15 18 16 15 17 18 16 19 17 16 15 15 14 13 14 13 12 11 13 13 12 13 12 11 12 11 12 10 10 11 10 9 9 8 8 7 6 6 6 6 5 4 3 3 3 3 3 3 4 4 5 5 4 5 5 5 5 4 4 5 5 7 8 8 8 15 17 11 12
7 9 10 10 10 10 10 10 12 12 13 12 13 13 14 17 18 19 20 20 20 18 18 19 18 15 14 15 16 15 12 11 10 9 11 12 13 13 13 12 10 9 8 9 10 10 10 9 8 8 7 7 7 7 6 6 5 5 3 3 3 2 4 4 4 4 5 5 5 4 4 6 4 4 4 5 5 6 6 6 7 8 11 19 16
8 9 10 10 6 8 11 11 10 9 10 15 18 18 21 19 16 18 17 14 16 17 19 16 15 14 16 16 14 14 15 16 15 14 13 11 11 11 11 10 9 9 9 9 10 9 9 9 9 8 8 7 7 6 6 6 5 5 5 4 5 3 4 4 4 5 4 4 4 5 6 6 5 3 4 5 5 5 6 6 6 8 8 11 12
10 8 7 8 11 12 10 9 11 14 17 16 17 16 15 15 16 18 16 18 18 18 17 16 17 17 16 16 16 16 16 15 13 13 11 11 9 9 8 9 10 10 10 9 9 10 9 9 9 8 8 7 7 6 6 6 6 5 5 5 4 4 4 3 4 4 5 3 4 4 4 5 3 3 4 4 4 5 6 6 6 6 6 9 10
5 8 8 8 10 11 13 14 15 14 13 12 11 10 10 12 15 16 19 20 20 17 15 12 12 12 14 17 17 15 13 12 11 11 11 12 13 11 12 11 9 9 10 10 10 10 10 9 9 8 8 8 7 7 7 6 6 5 5 5 4 4 4 5 5 4 4 3 4 5 5 5 3 4 4 5 5 5 6 5 5 5 6 7 10
8 8 10 12 12 12 13 14 13 16 16 14 12 11 13 15 13 13 12 10 9 12 14 16 17 15 13 12 13 13 12 11 11 13 13 14 13 12 12 11 12 10 11 11 11 11 11 11 9 9 8 8 8 7 7 6 6 6 6 6 5 5 5 5 4 3 3 3 4 5 6 6 4 4 5 5 6 6 6 6 6 6 7 7 8
9 10 11 11 10 9 10 10 9 4 3 6 9 14 15 10 11 12 15 16 16 16 15 15 13 14 14 15 15 14 14 11 10 12 13 12 12 12 12 12 11 12 12 12 12 12 11 10 10 9 10 9 8 7 7 7 6 6 6 5 5 5 6 5 4 4 3 4 5 6 7 6 4 6 6 6 6 6 6 6 6 6 8 7 8
9 9 8 9 10 10 8 5 3 6 7 8 10 9 9 13 16 15 14 13 15 15 15 16 14 14 15 14 13 11 11 10 12 11 13 12 13 13 12 12 14 12 12 13 12 10 10 11 10 9 9 8 7 7 6 6 6 6 5 4 5 5 5 5 4 5 5 5 5 6 7 6 5 7 7 8 7 7 6 7 7 7 8 8 9
11 10 10 10 9 10 11 11 12 13 14 14 10 12 14 15 14 13 15 17 17 18 15 13 13 14 15 13 11 11 11 12 13 12 13 13 13 12 12 15 13 12 10 11 12 11 11 10 9 8 8 7 7 7 6 6 6 7 6 5 5 6 6 6 5 6 5 4 5 6 7 6 5 7 8 7 6 7 6 8 9 8 9 9 10
8 7 7 8 7 5 4 6 10 10 10 13 13 13 13 12 14 14 16 18 16 13 13 13 13 13 12 11 13 12 13 13 14 13 14 13 13 12 12 13 12 11 12 9 9 10 9 9 9 9 8 8 8 7 7 6 7 7 6 6 5 5 5 5 6 6 6 5 6 7 7 6 6 8 8 8 7 7 7 8 9 9 10 11 10
6 7 9 7 5 6 10 11 12 14 13 13 13 13 13 14 12 14 16 16 14 12 11 12 12 13 13 15 14 14 15 16 16 13 15 13 12 12 11 13 12 11 10 10 9 9 10 10 10 11 10 9 9 8 8 7 6 6 6 5 5 5 5 5 5 5 7 6 7 8 8 6 7 8 8 8 8 9 9 9 9 9 10 11 11
9 9 7 8 11 11 8 8 9 10 11 11 12 13 13 13 15 15 15 12 12 10 12 12 11 13 13 15 16 15 17 18 17 14 14 13 11 11 12 10 12 13 11 10 11 10 10 11 10 10 9 9 9 8 8 7 6 5 5 5 4 5 5 5 6 6 6 6 7 8 8 7 7 9 9 8 9 10 9 10 11 12 12 12 14
13 12 10 8 7 8 11 11 11 11 11 11 12 13 13 13 14 13 13 13 13 12 12 12 12 14 13 15 16 17 17 16 15 13 12 12 12 12 12 12 10 11 12 11 10 10 9 10 10 10 10 9 9 8 7 6 6 5 5 5 5 5 5 5 6 7 6 7 7 7 8 8 9 9 10 10 9 11 11 13 14 14 14 15 15
6 6 8 11 12 11 10 12 11 12 12 11 11 12 14 15 16 14 13 12 10 12 13 14 14 14 14 16 16 15 14 14 12 11 12 12 11 11 11 10 10 12 12 12 12 11 9 8 9 8 7 7 7 7 7 7 5 5 5 5 6 6 6 6 7 7 6 7 8 8 9 9 9 10 10 11 11 12 12 14 14 13 14 14 14
7 10 11 11 12 13 13 12 12 11 11 13 11 11 10 10 10 10 11 14 13 13 13 13 14 15 15 15 12 11 10 11 12 12 12 12 12 11 10 10 10 10 9 10 9 10 10 10 8 8 7 6 6 6 5 6 6 6 6 6 6 6 6 6 6 6 7 9 8 7 8 8 11 15 19 18 17 16 12 11 11 9 10 11 11
9 12 13 14 16 15 12 11 11 12 13 13 12 12 12 13 13 12 13 12 12 14 14 14 15 16 13 11 11 10 11 11 12 13 13 12 12 11 11 11 10 9 9 9 9 9 7 7 9 8 7 6 6 5 8 14 11 6 6 6 6 6 6 7 7 8 9 8 8 9 8 16 18 19 19 21 22 23 24 19 15 13 13 13 13
12 14 14 14 13 12 11 12 14 14 15 15 14 14 12 12 11 12 13 12 13 14 14 15 16 13 11 11 11 11 12 13 13 12 12 13 13 11 11 11 10 11 11 11 10 11 10 9 8 8 8 6 6 6 14 13 14 15 9 6 6 6 7 8 9 9 9 8 8 9 9 12 13 14 14 21 22 23 23 24 26 26 22 18 15
13 14 13 12 11 11 13 15 16 16 15 13 12 12 10 13 13 13 12 11 13 13 15 14 13 11 12 13 12 13 13 13 13 13 13 13 12 12 12 11 11 10 9 8 10 10 9 9 8 8 7 7 7 10 14 14 14 14 11 7 6 6 7 8 8 8 8 8 8 8 9 7 7 9 10 11 16 22 24 25 26 26 26 27 26
13 13 13 14 14 15 16 17 15 15 14 15 15 12 13 15 13 13 10 12 14 14 14 13 12 13 13 13 13 15 14 13 14 13 12 12 13 12 12 12 13 11 9 11 11 10 10 9 8 9 8 8 7 12 14 14 13 13 12 10 4 6 7 8 8 8 8 7 8 8 9 9 7 15 14 12 13 14 19 25 26 27 28 28 27
12 12 14 15 14 13 14 15 16 15 15 16 13 15 16 14 12 9 13 13 14 13 13 13 13 13 14 14 14 14 14 14 13 13 13 14 14 15 13 11 10 10 11 10 10 10 9 9 8 9 8 8 8 11 14 13 12 12 11 10 5 7 8 8 7 6 7 8 9 8 9 9 10 10 10 12 13 14 13 12 13 14 15 20 25
12 12 12 13 14 14 14 13 12 14 12 9 9 10 7 5 9 12 12 13 13 13 12 13 14 13 13 13 15 14 14 13 13 14 14 14 15 13 13 12 12 13 14 14 13 12 11 10 9 7 6 7 6 12 13 13 11 11 11 11 7 7 6 5 6 7 7 8 9 9 10 11 11 11 10 13 13 12 11 11 12 13 14 14 16
13 13 12 12 13 15 15 16 13 9 8 8 11 9 8 9 9 12 12 13 13 13 14 12 13 14 15 15 14 14 14 13 14 14 15 15 15 15 16 12 11 10 8 9 7 8 8 10 9 8 7 5 5 13 12 11 11 11 12 7 6 6 5 6 6 6 7 7 8 9 10 11 11 12 15 22 20 16 14 14 15 16 16 15 15
14 11 13 14 14 14 15 12 8 8 9 10 9 7 8 8 10 10 11 11 12 13 14 15 14 14 14 14 14 15 15 15 15 16 16 16 16 14 13 11 13 12 10 10 7 8 9 11 11 11 9 5 6 10 12 12 12 12 10 5 5 5 5 5 6 6 6 8 8 10 10 10 11 12 16 21 22 22 14 14 16 17 15 14 17
18 17 11 9 8 9 11 9 10 9 10 7 6 9 10 10 10 10 11 12 13 15 14 13 13 13 14 14 14 15 16 16 17 19 19 16 15 13 14 14 16 15 12 11 9 12 11 9 9 9 7 7 6 9 12 12 12 13 11 6 6 5 4 5 5 6 7 7 10 15 14 11 13 13 18 21 23 19 15 15 14 14 17 16 16
15 15 15 14 12 10 9 8 7 9 7 5 7 10 10 10 10 11 11 12 14 13 13 15 16 15 15 15 15 16 16 17 18 18 17 18 18 17 14 12 12 12 13 13 14 13 11 6 6 7 12 8 6 8 12 12 13 13 10 5 5 4 5 4 4 6 7 8 8 9 14 14 13 14 21 21 23 19 14 12 13 17 18 17 17
17 16 13 12 11 9 7 5 7 8 2 6 7 9 10 11 10 9 10 12 14 16 16 11 10 12 12 13 14 16 16 17 17 15 14 15 12 11 13 13 11 11 11 13 15 10 9 8 7 8 8 9 8 6 7 13 13 14 13 7 5 5 4 4 5 6 6 6 8 9 10 13 16 18 19 21 22 25 17 13 11 11 12 17 15
15 16 15 13 13 10 8 6 7 3 0 3 5 6 8 8 10 11 13 17 16 11 9 11 11 11 12 14 13 15 17 15 13 14 12 10 10 13 13 13 13 10 13 13 8 8 7 8 8 8 7 7 6 6 7 12 13 13 13 9 4 4 4 5 6 6 5 7 7 7 8 12 16 18 20 22 24 23 22 14 11 10 13 18 23
14 15 13 14 13 13 12 9 5 1 0 2 4 5 4 4 7 11 18 11 5 8 9 10 13 13 13 13 13 11 12 12 11 12 13 13 10 12 13 14 11 12 14 12 7 7 7 7 7 7 8 6 8 11 4 10 14 12 11 10 5 5 6 6 5 4 6 6 7 8 7 12 18 19 21 22 23 22 24 13 12 21 26 27 20
16 18 17 13 13 15 13 7 2 0 2 3 4 5 5 5 9 14 3 5 7 8 9 10 11 13 14 15 14 16 15 13 14 14 15 13 11 12 11 12 13 13 13 11 8 8 8 8 7 7 6 6 6 7 12 8 12 12 11 9 9 7 7 3 3 3 5 6 6 8 10 16 18 20 21 21 20 23 18 13 22 24 25 27 22
13 10 11 11 13 13 13 10 2 2 3 3 6 5 5 7 15 3 4 5 7 9 9 10 10 11 11 12 12 13 12 12 14 14 14 14 14 13 13 12 12 13 12 10 6 7 7 8 9 8 7 6 6 5 10 13 10 12 10 9 8 7 6 4 4 3 4 6 6 8 9 16 19 20 19 19 19 18 14 21 22 24 24 22 13
15 14 13 10 13 14 13 12 9 4 4 5 6 9 7 11 6 4 5 7 7 9 10 11 11 11 12 11 11 11 12 12 12 14 15 13 14 14 14 12 12 11 12 11 7 8 8 8 8 8 8 8 7 7 4 9 13 11 10 8 7 6 6 7 3 1 3 5 9 13 16 17 17 17 18 18 15 16 20 21 22 23 21 10 10
12 13 14 12 13 12 11 11 12 5 4 3 4 3 8 7 3 5 5 6 8 9 9 11 10 10 11 11 12 11 10 11 13 12 14 14 16 15 14 13 11 10 11 11 9 7 6 7 7 7 8 7 7 7 6 5 7 8 7 8 8 6 6 7 6 4 9 11 10 12 14 14 13 13 10 8 8 10 18 21 21 19 9 9 9
15 14 14 14 12 12 12 11 12 8 4 6 6 7 8 1 5 6 7 8 9 10 9 8 10 9 9 11 13 12 11 11 12 11 10 11 12 13 14 11 9 8 7 9 9 9 7 6 7 9 7 8 8 8 7 6 5 4 3 4 4 3 5 6 3 4 7 2 4 6 6 11 11 15 15 15 14 14 11 10 8 8 8 9 9
11 13 12 11 12 13 14 13 13 12 6 7 8 9 9 5 5 7 9 10 11 12 13 12 11 10 10 11 11 13 14 12 12 13 13 11 11 12 11 11 13 12 12 11 11 11 11 11 10 10 9 8 8 7 7 7 6 6 5 6 5 4 4 4 3 6 2 1 1 5 7 5 5 6 7 5 6 6 8 9 9 9 8 9 12
15 12 10 11 12 14 13 14 14 11 8 6 9 10 7 8 8 8 10 12 11 11 10 11 11 10 10 10 10 12 12 12 12 12 10 11 14 14 9 4 10 12 15 15 14 11 10 10 11 13 13 10 8 10 9 10 8 10 8 5 4 4 4 4 6 4 4 2 2 3 3 5 4 6 7 7 7 8 8 8 9 10 9 9 9
13 13 13 14 13 13 14 15 15 12 8 8 10 10 8 9 7 8 10 12 11 10 10 11 11 11 11 11 11 11 12 12 13 13 11 8 7 9 12 14 12 12 12 8 10 10 12 12 11 9 10 14 13 10 15 18 15 13 11 9 8 7 6 5 4 3 6 1 1 2 4 3 5 5 7 7 8 8 9 10 9 11 11 10 10
15 14 14 14 15 14 15 16 15 13 11 11 10 9 8 9 10 10 12 12 11 11 10 9 10 11 13 14 13 12 12 12 12 13 12 10 8 9 17 16 11 13 13 14 12 11 16 14 11 11 9 11 15 19 18 15 14 13 10 9 7 7 5 4 3 4 2 0 0 3 4 4 4 5 6 7 8 8 9 10 10 10 9 11 12
Wind_Direction
244 204 196 199 197 189 182 174 175 174 171 171 170 176 174 173 169 178 177 171 167 168 172 168 169 164 170 182 182 180 178 173 174 172 173 169 164 164 164 162 162 162 165 159 156 150 148 150 151 160 150 146 145 162 161 157 158 164 235 300 312 341 332 358 335 338 327 311 251 266 279 248 260 267 244 278 278 302 307 326 307 314 311 312 300
249 200 207 202 191 182 171 171 163 169 182 172 177 177 173 173 179 177 174 179 180 178 175 178 180 181 176 184 177 178 171 173 177 183 177 166 162 165 165 164 164 166 165 160 155 151 151 158 162 170 161 162 160 151 149 150 146 216 189 351 316 333 313 6 334 3 9 1 332 329 238 243 253 243 235 87 345 316 317 312 310 317 312 305 311
239 232 202 197 189 178 172 176 182 181 175 179 176 170 176 180 184 177 181 181 184 179 177 185 181 178 178 174 174 172 190 173 163 166 156 161 169 168 165 166 166 168 166 162 156 158 160 160 173 170 165 155 137 137 138 144 156 179 182 182 305 331 299 280 356 64 319 315 276 318 337 356 329 7 348 351 310 308 306 311 303 307 292 290 292
236 220 204 194 182 179 176 182 184 174 174 176 176 178 179 184 183 181 183 183 182 185 184 176 169 154 133 135 144 148 170 155 142 144 153 151 170 173 175 169 169 167 167 162 158 159 162 166 166 163 168 157 151 149 150 162 152 172 176 185 152 356 18 313 46 43 51 342 358 22 287 80 325 337 335 315 323 282 233 284 296 306 298 298 300
230 220 202 179 179 188 188 185 169 179 181 181 180 182 184 186 185 182 181 185 184 179 176 160 144 135 121 110 114 96 86 135 142 170 177 173 164 184 185 173 169 167 167 165 160 163 163 164 164 167 160 160 148 152 159 167 168 185 181 147 152 181 290 267 314 59 351 308 167 2 350 9 232 299 327 293 330 338 328 315 314 311 302 289 280
217 207 191 190 190 185 183 174 181 186 186 188 182 184 182 183 181 182 182 183 183 179 172 166 171 165 158 157 170 176 175 175 189 184 180 184 190 174 164 174 170 167 169 165 163 160 164 166 165 161 162 159 154 160 158 146 166 173 190 169 170 176 187 263 283 335 312 310 225 177 177 226 308 314 348 301 332 288 278 303 312 300 287 286 278
233 210 188 186 192 180 185 185 189 189 196 179 182 186 184 180 182 182 182 183 180 177 174 172 176 182 182 183 181 184 184 199 190 184 184 182 160 174 177 173 173 167 172 168 165 165 163 166 165 164 163 159 159 153 159 167 175 181 173 149 175 159 136 230 275 290 344 301 258 238 266 279 281 327 269 306 312 171 95 323 303 298 290 281 282
202 199 196 194 185 183 187 195 189 197 182 177 184 184 185 182 181 182 182 182 181 176 180 182 183 185 187 189 189 193 194 188 182 183 177 164 168 174 167 175 173 172 170 171 167 166 164 165 164 163 162 167 162 168 168 170 162 175 162 166 151 153 157 191 251 226 257 284 13 328 309 297 284 257 242 257 275 301 300 276 260 265 270 279 281
194 195 199 193 190 194 193 191 199 181 178 185 186 185 183 179 179 180 185 183 183 181 183 188 189 187 188 186 194 201 191 181 170 162 166 166 168 167 172 173 174 176 173 169 169 165 167 167 165 164 165 171 168 167 164 157 165 170 172 146 156 153 154 180 182 228 205 238 301 311 320 278 294 271 283 268 283 305 295 303 302 240 237 268 276
206 205 196 195 194 195 196 188 178 191 186 184 180 177 182 176 181 183 189 187 185 185 187 189 190 185 190 193 193 189 176 160 165 169 171 169 174 176 175 175 177 174 176 171 167 170 167 166 166 168 169 169 167 170 160 156 162 166 174 182 172 182 186 178 202 212 204 223 215 241 263 309 310 298 251 301 274 235 274 299 302 308 304 245 261
209 207 202 196 190 191 169 183 191 181 184 181 183 183 180 182 184 187 192 186 187 188 186 190 190 191 195 193 192 186 180 169 169 178 174 174 180 179 178 180 176 179 171 175 171 169 171 170 168 170 168 168 165 163 166 162 165 164 170 168 179 190 216 215 232 230 214 227 229 207 229 230 237 260 286 301 295 295 301 290 299 292 287 302 233
199 185 184 170 168 179 183 195 186 186 179 189 189 183 186 187 184 190 191 192 189 188 189 192 191 197 198 194 194 190 180 181 183 183 183 183 181 179 176 169 180 173 174 172 178 174 170 172 169 165 169 168 171 165 160 158 161 159 168 180 193 184 183 191 204 230 238 239 233 220 229 223 230 233 250 250 258 278 281 290 296 306 299 259 291
178 186 170 175 183 183 194 197 182 187 195 190 188 188 188 189 190 190 198 193 191 188 191 192 193 198 197 196 196 187 189 189 189 187 185 184 180 175 172 179 171 174 185 180 185 178 171 169 172 173 173 174 166 159 160 155 155 158 162 163 165 179 190 193 203 219 218 226 229 231 220 231 236 233 236 241 265 270 280 291 286 293 292 302 295
189 178 180 186 189 193 195 189 193 195 192 189 189 188 190 193 194 196 202 192 191 191 194 193 199 200 197 196 193 189 193 192 193 188 186 186 180 180 179 179 179 185 180 187 181 174 175 175 170 171 169 165 164 160 158 157 152 153 157 167 183 189 178 195 211 230 235 235 228 232 232 231 241 228 230 245 260 272 274 274 295 295 281 290 301
180 181 189 192 196 193 191 193 195 196 193 190 189 193 189 197 197 201 198 194 193 197 194 198 200 199 198 198 193 192 194 193 196 191 183 183 183 180 183 179 181 182 183 178 166 175 172 168 171 167 168 165 158 155 151 146 144 142 156 171 177 175 194 198 220 223 234 238 235 227 240 246 247 238 230 241 237 248 259 273 291 303 305 282 292
187 193 202 205 198 193 193 193 196 194 191 192 194 192 194 201 200 201 199 196 195 194 198 200 199 196 197 196 198 193 193 192 193 192 190 186 181 181 182 180 180 170 170 162 174 170 170 169 166 167 161 157 154 152 148 144 142 145 156 163 195 182 195 209 224 220 236 237 240 241 240 250 244 241 231 238 238 247 251 264 268 280 293 304 311
194 202 202 203 198 203 200 196 192 189 189 196 197 194 198 198 197 202 204 198 198 199 202 200 197 192 199 199 196 196 193 193 193 189 186 183 180 182 178 176 164 165 164 166 167 170 166 164 163 160 159 155 151 150 147 145 146 154 169 181 199 194 195 218 218 218 233 232 239 238 238 248 246 233 240 234 242 243 247 251 248 252 271 281 300
205 208 209 202 199 201 200 202 198 195 197 200 202 201 201 198 199 202 200 199 202 199 199 197 197 197 196 197 200 201 199 196 187 183 178 172 177 172 163 161 173 167 163 165 162 163 162 160 157 159 156 153 154 151 151 152 151 165 176 191 193 183 207 223 222 219 235 223 235 242 237 249 247 231 231 241 237 238 246 245 247 246 244 255 274
205 217 213 210 208 205 198 202 204 204 203 205 206 197 198 203 206 204 203 204 202 198 199 200 200 202 198 198 197 199 200 198 187 174 170 176 176 174 172 170 154 159 157 159 163 161 161 161 159 159 157 157 155 156 154 155 157 169 180 190 191 182 202 222 226 217 228 212 233 247 247 254 248 241 244 248 245 243 248 248 242 250 242 249 266
208 213 214 212 210 205 204 204 199 200 200 200 193 192 204 208 204 208 212 209 206 203 199 199 202 199 198 194 196 196 194 193 187 176 177 180 176 169 165 161 168 158 164 162 163 165 165 163 164 159 159 159 160 162 160 158 163 177 183 188 189 181 200 219 230 215 220 215 231 244 247 252 249 244 249 246 248 245 247 245 246 246 249 248 255
215 212 215 216 216 219 217 216 217 225 212 186 190 200 207 199 204 206 204 201 203 207 201 206 199 200 195 194 195 189 189 183 182 184 178 176 172 171 171 166 151 169 162 165 168 169 168 165 161 165 166 168 164 166 163 160 169 180 184 187 185 184 204 223 217 237 221 225 234 244 250 253 246 252 252 252 248 247 243 243 240 242 246 243 243
220 221 223 220 214 213 223 224 194 183 204 208 207 197 194 200 205 203 203 206 206 207 203 205 199 198 195 195 189 186 181 174 180 183 183 176 173 174 166 158 169 167 167 168 168 167 166 165 166 168 167 164 163 161 157 156 170 178 187 179 182 190 208 219 214 236 231 229 235 242 252 252 244 248 252 251 248 250 243 245 241 239 245 243 234
221 222 220 217 217 213 201 199 200 201 203 202 196 198 204 206 202 202 201 208 206 206 204 202 197 194 195 188 177 177 176 178 179 183 187 181 176 169 167 167 168 165 169 168 169 168 169 165 162 160 156 157 157 155 158 162 176 181 187 186 182 194 207 214 220 230 231 230 238 245 251 250 248 251 251 252 247 250 246 249 250 245 248 246 240
238 233 231 227 221 213 173 196 209 214 214 209 205 206 207 204 202 200 205 210 208 206 200 197 200 199 185 172 179 176 173 179 185 187 188 185 176 170 168 167 165 161 167 170 164 165 161 161 157 156 157 156 159 159 162 172 181 184 178 184 186 197 204 210 221 235 238 235 243 251 250 248 245 252 255 258 253 251 252 252 256 251 251 250 245
252 244 238 234 227 203 205 205 206 211 213 209 207 206 204 208 200 201 209 209 207 200 195 198 198 192 181 177 178 177 181 183 187 186 188 180 178 170 169 166 160 165 165 157 162 162 162 162 164 165 163 163 162 162 168 176 181 180 181 181 198 205 215 220 226 228 243 237 243 247 253 246 248 254 260 258 256 256 253 254 253 251 248 248 246
247 244 243 233 224 221 219 220 220 220 215 214 211 209 208 206 205 205 206 198 201 195 201 191 187 189 190 182 180 181 186 188 187 184 180 176 172 172 168 166 165 163 161 166 165 170 170 168 162 162 159 161 161 165 170 175 178 173 174 182 198 213 219 229 235 236 230 233 246 249 250 249 249 254 262 260 259 259 259 255 255 254 252 249 247
234 231 232 241 251 240 227 224 221 218 214 214 210 209 208 207 209 203 202 195 193 186 188 190 189 195 191 189 182 187 188 187 184 179 170 169 172 170 169 168 165 160 162 166 170 168 171 162 161 159 164 161 161 162 166 172 169 168 175 189 205 214 229 230 236 237 234 242 243 245 248 248 252 253 257 258 264 263 259 257 253 254 253 257 256
250 259 251 241 238 238 233 230 225 225 221 221 217 212 208 204 204 201 195 191 188 186 187 189 188 194 196 194 191 186 184 182 174 165 167 169 165 167 169 162 159 165 169 170 169 168 165 160 159 156 147 148 152 156 160 165 166 160 175 199 205 220 233 237 235 238 230 244 246 249 249 250 252 254 255 258 256 263 264 264 262 256 258 257 258
221 235 236 236 237 237 233 230 227 227 226 223 219 219 216 217 216 198 190 194 182 182 187 188 191 196 199 196 183 176 173 166 164 163 165 167 167 165 162 161 165 166 166 166 165 161 157 156 153 153 146 144 153 164 160 165 167 182 181 200 207 214 221 228 236 241 245 247 243 242 247 248 251 259 264 269 266 265 265 266 264 249 242 247 253
230 231 230 229 232 234 237 234 235 229 227 225 220 216 210 209 206 197 194 191 171 187 184 188 192 198 195 184 176 168 166 162 163 168 167 164 163 162 161 161 164 162 157 157 159 165 158 144 143 146 148 154 167 166 186 191 190 181 187 192 205 204 213 227 240 248 248 248 254 259 255 261 268 271 274 275 276 278 277 277 278 277 274 275 275
226 232 232 231 232 238 240 239 239 235 228 225 220 216 212 210 207 198 194 184 181 184 189 189 195 191 180 172 166 167 162 169 169 163 163 163 163 161 161 162 161 161 163 164 164 162 160 159 149 151 158 165 173 179 192 199 201 200 191 185 194 208 214 232 241 246 252 257 262 261 263 268 272 276 280 279 280 279 278 279 280 281 280 280 284
232 230 231 232 233 231 232 234 236 235 232 227 224 218 205 211 204 198 191 176 182 186 188 192 187 174 173 171 170 164 168 170 165 169 166 165 159 160 163 163 160 160 163 159 164 166 160 158 161 162 165 173 177 189 194 198 202 208 206 185 187 208 233 237 240 245 254 261 266 271 274 274 270 269 269 270 274 278 281 283 284 284 281 280 278
233 227 227 229 227 226 227 232 234 234 231 227 221 211 208 211 198 199 167 174 184 186 185 182 179 176 175 172 167 169 170 169 172 165 162 159 160 162 163 163 169 166 156 164 166 161 165 164 165 166 172 177 175 190 193 196 203 209 213 215 196 225 233 235 242 248 256 264 275 277 275 273 270 276 280 277 274 273 277 282 285 285 284 282 282
237 227 224 228 228 230 233 234 235 232 224 225 214 209 215 206 192 168 172 181 179 184 180 181 176 178 174 172 170 169 172 171 165 162 162 163 165 170 168 165 155 155 163 164 165 167 167 169 169 170 168 172 174 188 193 198 203 209 214 216 218 226 234 238 237 252 264 268 268 269 273 275 275 275 272 272 274 273 274 271 270 271 272 276 282
235 234 227 229 230 233 238 242 241 234 229 225 227 218 212 156 160 172 180 174 181 177 179 178 179 178 171 172 172 171 169 166 165 163 164 167 169 165 164 166 166 168 170 172 171 171 175 172 171 169 155 165 169 186 191 195 199 205 208 216 222 223 220 227 248 253 255 262 268 267 271 274 276 278 275 278 283 285 284 280 274 277 278 279 277
259 256 248 234 232 231 229 234 233 226 228 212 222 204 177 185 167 173 174 178 175 177 181 177 180 179 177 174 169 169 167 165 166 166 168 170 172 171 169 167 165 168 150 139 165 167 158 166 167 160 139 157 168 185 187 192 197 201 208 216 210 208 223 232 239 246 258 263 263 265 268 271 276 279 283 290 293 295 292 291 290 283 277 275 272
286 264 255 248 235 226 226 227 232 219 218 220 213 167 169 152 165 173 171 174 174 181 185 185 184 176 174 172 171 168 168 168 169 169 173 174 172 171 170 165 165 170 161 171 161 162 156 163 148 147 151 155 167 191 192 194 198 200 207 198 196 203 211 230 245 252 257 263 264 265 268 274 282 285 291 295 296 299 297 291 283 282 285 289 294
324 313 302 284 268 242 239 229 235 235 224 209 165 160 154 164 169 168 168 177 181 191 187 182 181 176 174 171 171 169 170 172 173 178 178 176 173 171 173 172 171 168 171 170 146 141 143 135 151 158 165 166 167 190 191 191 193 202 205 184 197 177 212 229 249 254 261 264 265 271 277 284 288 288 292 294 298 302 293 289 291 298 300 296 299
343 340 331 318 310 297 268 252 245 245 234 152 154 152 155 170 173 172 175 176 192 191 183 186 185 176 172 171 172 173 175 176 181 182 176 174 176 177 172 171 174 169 168 161 134 143 133 142 153 155 174 167 161 187 189 189 197 205 203 175 179 191 203 219 241 257 258 266 272 279 284 285 286 290 294 298 299 300 299 301 305 302 302 304 304
335 338 335 322 325 334 317 291 249 248 158 153 152 160 169 168 172 160 171 193 197 198 195 181 166 168 171 170 173 175 177 179 182 177 178 177 169 163 170 171 170 166 161 153 141 148 147 152 156 160 179 174 173 178 190 193 200 203 203 184 181 186 201 218 246 259 253 258 283 287 286 288 290 293 297 299 301 307 308 305 302 304 305 301 300
328 328 333 340 338 340 323 320 324 333 126 138 148 153 176 172 161 172 192 203 202 181 163 169 163 163 169 175 175 179 179 181 177 173 167 163 170 169 164 169 166 164 153 119 148 142 139 150 161 166 171 176 171 159 185 190 201 203 204 199 166 189 210 233 237 244 260 286 288 285 288 289 293 296 298 303 309 309 308 308 310 304 293 296 308
323 323 332 334 332 333 326 338 3 12 43 140 149 172 179 164 174 195 208 204 140 159 160 160 169 174 173 173 174 174 171 166 162 159 167 173 171 171 171 166 161 159 160 147 141 149 145 153 156 165 172 169 175 177 178 203 202 200 198 202 181 203 221 224 236 248 278 282 286 289 290 290 292 295 304 309 309 308 310 314 301 299 304 310 313
323 325 325 331 328 324 322 317 319 240 153 185 167 182 178 177 201 224 192 133 161 152 161 165 166 171 175 174 173 170 170 169 170 170 166 164 160 165 170 168 162 161 160 156 150 149 149 152 153 167 170 163 168 179 184 195 196 194 197 204 210 217 239 245 257 257 273 285 290 285 284 282 294 307 309 308 308 310 315 305 305 310 313 316 320
309 306 307 322 318 314 312 316 270 181 191 189 191 193 194 195 226 176 143 148 150 162 156 166 172 174 170 173 171 169 168 168 167 164 165 161 165 167 168 171 169 163 161 151 151 154 154 150 158 163 165 164 165 161 187 186 194 195 199 204 211 220 237 253 251 262 275 283 287 272 274 296 310 309 307 309 311 312 308 309 313 316 319 322 317
318 317 320 318 309 305 306 305 292 231 225 208 201 200 198 221 231 138 169 166 162 159 165 169 173 172 172 168 163 167 169 167 167 166 166 166 164 164 168 175 168 169 166 163 159 164 160 155 154 162 158 162 156 157 180 191 189 194 198 202 204 218 244 265 276 246 288 265 273 291 307 310 307 309 312 314 313 310 310 315 318 320 321 310 303
323 324 321 316 312 309 307 303 302 292 255 269 261 241 220 236 105 149 149 159 156 163 172 177 170 170 168 159 160 162 164 168 169 176 174 171 168 170 171 171 172 172 172 167 157 160 147 160 163 147 150 138 140 140 173 197 199 193 194 200 205 225 250 266 270 282 280 285 295 307 311 312 312 312 314 309 302 306 313 316 316 316 306 298 295
321 318 319 318 318 312 308 305 301 295 241 243 227 231 237 235 163 152 154 155 164 170 170 167 172 167 161 162 166 167 165 169 175 175 175 171 173 174 172 166 162 159 154 161 155 157 154 168 155 152 137 149 156 169 181 190 186 184 201 211 217 219 259 268 263 263 274 305 319 319 311 309 313 312 313 311 309 309 308 306 302 299 294 294 292
308 308 311 310 308 305 301 297 290 287 265 242 238 239 233 207 166 168 161 162 170 177 177 177 172 169 169 173 173 168 167 172 179 177 174 174 180 181 175 176 171 164 153 161 168 170 174 169 157 153 153 150 167 172 185 188 185 180 191 190 192 173 216 178 190 259 173 118 326 331 320 304 301 306 304 301 297 298 302 306 304 301 296 292 296
309 309 308 305 304 301 297 290 285 281 272 243 242 239 227 207 192 175 169 172 182 180 173 167 167 165 174 177 177 176 179 174 176 182 186 182 178 182 177 91 174 171 171 166 169 177 181 173 160 158 158 163 168 182 192 189 187 183 183 176 158 178 194 168 240 243 105 41 19 323 311 320 321 313 317 312 308 310 310 306 303 303 304 305 303
304 308 307 302 297 293 292 289 284 281 267 245 245 237 217 212 187 179 176 181 179 173 172 177 174 175 173 174 179 180 181 180 177 177 165 163 184 184 177 176 172 180 185 196 192 184 171 158 156 165 169 167 172 175 183 179 184 180 168 167 173 188 190 196 227 65 91 90 283 316 300 309 311 315 312 310 313 317 313 315 309 312 309 305 305
304 305 303 297 295 294 291 286 283 282 274 261 252 236 211 204 193 186 184 186 172 176 182 178 177 188 185 180 179 180 183 181 179 172 171 160 147 166 174 181 172 170 173 171 167 164 155 151 146 145 165 159 154 165 171 175 167 159 164 161 158 164 166 163 106 86 54 68 290 339 314 314 306 305 301 303 311 314 313 311 310 309 304 305 305